User: anonymous   Login
Location: Griffin Ranch
(33.6186°N, 110.6622°W)
Time: 20:28:01
(UTC-07:00)
Language:

Cosmos 1812 - Orbit

View from above orbital plane
View from above orbital plane
View from above satellite
View from above satellite

Ground track
Ground track

The orbit data is extracted from the following two-line orbital elements,

1 17295U 87003A   15144.81393886  .00002226  00000-0  12769-3 0  9993
2 17295 082.5131 166.0583 0003051 179.8992 180.2239 15.12095365544857
Epoch (UTC): 24 May 2015 19:32:04
Eccentricity: 0.0003051
inclination: 82.5131°
perigee height: 528 km
apogee height: 532 km
right ascension of ascending node: 166.0583°
argument of perigee: 179.8992°
revolutions per day: 15.12095365
mean anomaly at epoch: 180.2239°
orbit number at epoch: 54485

The dashed part of the orbit path shows where the satellite is in the earth's shadow,  

DLR